Location: Writing-on-Stone Provincial Park
(49.0825°N, 111.6163°W)
Time: 14:42:04
(UTC-06:00)

Daily predictions for brighter satellites

Satellite Brightness Start Highest point End
(mag) Time Altitude Azimuth Time Altitude Azimuth Time Altitude Azimuth
CENTAUR R/B 3.4 21:39:00 10° NW 21:46:44 70° SW 21:55:03 10° SSE
Cosmos 1455 Rocket 4.1 21:45:49 10° NNW 21:50:02 47° W 21:54:12 10° SSW
Cosmos 1939 Rocket 3.5 21:47:01 10° S 21:50:48 54° W 21:54:37 10° NNW
Meteor 1-13 Rocket 4.4 21:45:03 10° S 21:50:57 68° E 21:56:48 10° NNE
Cosmos 292 Rocket 4.0 21:47:09 10° SSW 21:51:59 78° WNW 21:56:50 10° NNE
SL-27 R/B 3.6 21:50:28 10° SSE 21:53:33 26° ESE 21:56:38 10° NE
Nadezhda 1 Rocket 4.3 21:48:25 10° SSE 21:54:33 52° E 22:00:45 10° NNE
NOSS 3-4 (A) 4.3 21:49:29 10° WSW 21:55:46 61° NW 22:02:21 10° NE
NOSS 3-4 (C) 4.3 21:49:35 10° WSW 21:55:52 61° NW 22:02:28 10° NE
NOAA 11 4.3 21:50:57 10° SSE 21:56:21 68° ENE 22:01:46 10° N
COSMOS 2455 4.2 21:51:54 10° NW 21:57:18 35° WSW 22:02:39 10° S
SL-08 RB Rocket 4.4 21:53:27 10° SE 21:57:35 38° ENE 22:01:45 10° N
Cosmos 2154 Rocket 4.4 21:52:05 10° N 21:58:19 53° ENE 22:04:30 10° SSE
Cosmos 1346 2.9 21:56:53 10° S 21:59:36 58° E 22:02:21 10° NNE
COSMOS 2406 3.4 21:54:36 10° S 22:00:10 56° ESE 22:05:45 10° NE
ARGOS 3.5 21:55:52 10° SE 22:01:08 56° ENE 22:06:26 10° N
Cosmos 1743 3.3 21:58:04 10° NNW 22:01:55 59° W 22:05:45 10° S
NOSS 2-2 (C) 3.6 21:59:02 10° SSW 22:03:03 59° SE 22:07:47 10° NE
Cosmos 2056 Rocket 4.0 21:59:29 10° NNW 22:04:32 47° ENE 22:09:28 10° SE
Cosmos 405 3.1 22:01:36 10° N 22:05:11 62° ENE 22:08:42 10° SSE
Cosmos 1680 Rocket 3.6 22:00:30 10° S 22:05:36 57° ESE 22:10:44 10° NNE
H-2A R/B 3.8 22:02:37 10° ESE 22:06:01 21° ENE 22:09:24 10° NNE
SPOT 5 2.9 22:02:42 10° SSE 22:06:55 55° ENE 22:11:12 10° N
Cosmos 2082 Rocket 4.0 22:10:16 10° ESE 22:12:31 12° E 22:14:45 10° ENE
USA 234 4.3 22:07:04 10° ENE 22:13:12 45° N 22:19:20 10° WNW
Tiangong 2 3.0 22:15:57 10° S 22:17:28 13° SSE 22:17:54 13° SSE
Terra 3.0 22:16:05 10° ESE 22:20:06 29° ENE 22:24:11 10° N
Cosmos 1437 Rocket 2.9 22:17:41 10° N 22:21:29 57° ENE 22:24:52 12° SSE
ASTEX 1 3.7 22:17:51 10° S 22:22:45 70° W 22:27:39 10° N
Cosmos 2369 4.2 22:18:14 10° NNW 22:23:52 51° NE 22:28:55 12° SE
Cosmos 2341 Rocket 4.2 22:20:17 10° N 22:26:35 63° ENE 22:32:34 11° SSE
MetOp-B 4.3 22:22:04 10° S 22:27:25 76° WSW 22:32:48 10° NNW
Okean 1-7 Rocket 3.6 22:25:14 10° S 22:29:41 79° E 22:34:12 10° NNE
SPOT 1/Viking Rocket 3.6 22:24:55 11° SSE 22:29:48 69° ENE 22:34:57 10° N
Okean 2 3.6 22:26:26 10° S 22:30:25 54° E 22:34:26 10° NNE
ISS -2.5 22:28:23 10° SSW 22:30:56 21° SE 22:33:29 10° E
Cosmos 1666 3.9 22:28:38 10° NNW 22:32:09 38° W 22:35:39 10° SSW
Cosmos 1697 Rocket 3.8 22:28:06 10° NNW 22:33:14 34° NE 22:38:08 11° ESE
Cosmos 839 Rocket 4.3 22:28:34 10° NW 22:34:57 80° NE 22:41:31 14° SE
Cosmos 1238 Rocket 4.2 22:28:44 10° S 22:35:31 89° W 22:42:03 10° N
Cosmos 1452 Rocket 4.4 22:31:45 10° NNW 22:36:43 39° ENE 22:40:54 14° ESE
Aureole 3 Rocket 4.2 22:32:37 10° SSW 22:38:46 57° W 22:43:11 10° N
Aureole 1 Rocket 2.2 22:37:17 10° SSW 22:40:31 79° WNW 22:43:31 10° NNE
Cosmos 2228 3.5 22:36:34 10° N 22:40:45 45° ENE 22:43:46 17° SE
Cosmos 1892 Rocket 3.9 22:38:45 13° SSE 22:42:28 47° E 22:46:44 10° NNE
Cosmos 1371 Rocket 4.2 22:38:31 10° NNW 22:43:51 71° WSW 22:48:28 14° SSE
Cosmos 921 Rocket 3.2 22:41:55 10° NNW 22:46:27 68° ENE 22:49:41 18° SSE
Meteor 2-4 Rocket 4.1 22:41:14 10° SSW 22:46:51 68° WNW 22:52:42 10° N
ATLAS CENTAUR R/B 4.0 22:48:53 10° N 22:49:54 11° NNE 22:50:54 10° NE
NOSS 2-2 (E) 4.4 22:47:34 10° WSW 22:51:44 57° NW 22:56:51 10° NE
Lacrosse 5 rocket 3.5 22:47:39 10° WNW 22:51:45 30° N 22:55:52 10° ENE
Cosmos 1606 Rocket 3.6 22:48:01 10° NNW 22:52:21 75° W 22:55:59 14° S
Cosmos 1656 3.9 22:48:16 10° NNW 22:53:39 59° ENE 22:57:43 18° SE
USA 245 3.6 22:53:35 14° SSW 22:55:34 32° W 22:57:47 10° NNW
Cosmos 1833 Rocket 3.8 22:53:01 17° SE 22:55:46 25° ESE 23:00:17 10° NE
Meteor 1-4 Rocket 3.2 22:59:23 10° N 23:02:54 42° ENE 23:04:39 24° SE
Cosmos 1726 Rocket 3.7 22:58:57 10° NNW 23:03:16 69° W 23:06:37 16° S
Cosmos 2181 Rocket 4.0 22:57:55 11° S 23:04:05 75° E 23:10:23 10° NNE
SL-24 DEB 4.4 23:00:07 13° S 23:04:11 70° W 23:08:51 10° N
Cosmos 1515 3.6 23:02:59 16° S 23:05:58 86° E 23:09:48 10° N
PSLV R/B 3.6 23:07:34 30° ESE 23:08:30 41° ENE 23:11:11 10° N
TELKOM 3 3.7 23:07:01 10° W 23:09:25 49° SSW 23:10:31 31° SE
Cosmos 2058 Rocket 3.1 23:05:40 10° NNW 23:10:04 79° W 23:13:09 20° S
CARTOSAT-1 3.5 23:13:46 23° SSE 23:16:25 87° E 23:20:46 10° NNW
Cosmos 1025 Rocket 4.3 23:14:00 10° SW 23:17:59 38° WNW 23:22:01 10° N
H-2A R/B 2.5 23:14:06 15° S 23:18:02 53° W 23:22:59 10° NNW
USA 267 4.1 23:12:48 10° ENE 23:18:15 27° SE 23:21:19 19° SSE
Cosmos 1980 Rocket 2.9 23:14:48 10° NNW 23:20:15 45° NE 23:24:11 18° ESE
DMSP B5D2-2 4.0 23:18:52 10° NNE 23:24:13 81° ESE 23:28:28 16° SSW
Cosmos 2322 Rocket 3.9 23:23:41 10° NNW 23:28:22 25° NE 23:33:01 10° E
SeaSat 1 3.6 23:26:26 14° ESE 23:30:03 35° NE 23:34:32 10° NNW
Cosmos 864 Rocket 4.5 23:25:44 10° N 23:32:05 83° E 23:36:10 23° SSE
Cosmos 1805 4.3 23:31:36 10° N 23:35:09 32° ENE 23:36:34 25° ESE
Meteor 1-22 Rocket 4.0 23:31:42 10° N 23:37:01 84° ENE 23:40:05 27° SSE
Cosmos 1812 Rocket 3.7 23:34:00 10° N 23:38:29 66° ENE 23:40:32 31° SSE
CZ-4C R/B 3.3 23:37:42 36° SE 23:38:54 57° ENE 23:42:26 10° N
H-2A R/B 2.6 23:39:03 24° S 23:41:40 55° W 23:46:08 10° NNW
USA 229 DEB 3.9 23:37:10 10° NW 23:44:18 73° NE 23:49:37 20° SE
USA 229 3.9 23:37:16 10° NW 23:44:24 73° NE 23:49:43 20° SE
Cosmos 1544 3.7 23:41:05 10° N 23:44:35 43° ENE 23:45:36 34° ESE
Cosmos 389 Rocket 4.0 23:43:23 10° NNE 23:46:20 25° ENE 23:47:15 22° E
SME Rocket 4.0 23:44:52 24° SE 23:47:43 46° ENE 23:51:42 10° N
SL-8 Rocket 4.5 23:41:43 10° NNW 23:47:49 57° W 23:52:21 19° SSW
Cosmos 2366 rocket 4.1 23:45:51 10° NNW 23:52:00 70° W 23:55:55 23° S
Cosmos 1626 Rocket 3.4 23:51:29 30° S 23:53:36 88° W 23:57:58 10° N
